Location: Big Prairie
(40.6673°N, 82.0952°W)
Time: 18:34:41
(UTC+00:00)

USA 276 - Pass Details

Date: 02 July 2022
Orbit: 366 x 369 km, 50.0° (Epoch: 12 July)

Event Time Altitude Azimuth Distance (km) Brightness Sun altitude
Rises 02:57:19 0° 272° (W) 2,203 6.5 -16.8°
Reaches altitude 10° 02:59:39 10° 289° (WNW) 1,356 5.7 -17.1°
Maximum altitude 03:02:05 21° 342° (NNW) 884 4.7 -17.3°
Drops below altitude 10° 03:04:30 10° 35° (NE) 1,360 5.1 -17.6°
Sets 03:06:51 0° 52° (NE) 2,210 6.0 -17.9°
